Retour au catalogue

STARLINK-32436

ActifCommunicationsVLEO
NORAD 61215·PAYLOAD·🇺🇸 United States

Lancé Sep 20, 2024 depuis Vandenberg Space Force Base

Loading…

Prochains Passages (prochaines 24 heures)

TLE

FraisSource: CelesTrak SupGP

Époque: Sep 15, 2026, 03:22 UTC

1 61215C 24171R   26258.14076389  .00016360  00000+0  48342-3 0  2588
2 61215  53.1577 158.9106 0001279  87.0486 301.9871 15.34378170    16

Suivez STARLINK-32436 en temps réel avec AllMySat

Download on the App Store